Location: Eschentzwiller
(47.7125°N, 7.3981°E)
Time: 04:14:01
(UTC+00:00)

Meteor 2-3 Rocket - Pass Details

Date: 27 October 2020
Orbit: 843 x 885 km, 81.2° (Epoch: 01 December)

Event Time Altitude Azimuth Distance (km) Brightness Sun altitude
Rises 18:27:55 0° 353° (N) 3,454 7.0 -22.0°
Reaches altitude 10° 18:30:31 10° 1° (N) 2,520 6.2 -22.5°
Enters shadow 18:34:42 36° 43° (NE) 1,366 4.5 -23.2°
